Today
| Time | Wind Dr | Wind Spd mph |
Wind Gust mph |
Hum In % |
Humid % |
TempI F |
Temp F |
Raw Bar in |
Tot Rain in |
UV | Solar W/sqm |
DailyRain in |
HourRain in |
24HrRain in |
RainRate in |
|---|---|---|---|---|---|---|---|---|---|---|---|---|---|---|---|
| 05/08/26 12:01:26 AM | 35 | 0.0 | 0.0 | 55 | 76 | 71.9 | 62.0 | 30.002 | 7.26 | 0.0 | 0 | 0.00 | 0.00 | 0.00 | 0.00 |
| 05/08/26 12:02:18 AM | 36 | 0.0 | 0.0 | 55 | 76 | 72.0 | 62.0 | 30.001 | 7.26 | 0.0 | 0 | 0.00 | 0.00 | 0.00 | 0.00 |
| 05/08/26 12:03:30 AM | 35 | 0.0 | 0.0 | 55 | 76 | 71.9 | 62.0 | 30.002 | 7.26 | 0.0 | 0 | 0.00 | 0.00 | 0.00 | 0.00 |
| 05/08/26 12:04:18 AM | 32 | 0.0 | 0.0 | 55 | 76 | 72.0 | 62.0 | 30.002 | 7.26 | 0.0 | 0 | 0.00 | 0.00 | 0.00 | 0.00 |
| 05/08/26 12:05:31 AM | 36 | 0.0 | 0.0 | 55 | 76 | 72.0 | 61.9 | 30.002 | 7.26 | 0.0 | 0 | 0.00 | 0.00 | 0.00 | 0.00 |
| 05/08/26 12:06:22 AM | 34 | 0.0 | 0.0 | 55 | 76 | 72.0 | 61.9 | 30.001 | 7.26 | 0.0 | 0 | 0.00 | 0.00 | 0.00 | 0.00 |
| 05/08/26 12:07:32 AM | 34 | 0.0 | 0.0 | 55 | 76 | 72.0 | 61.9 | 30.003 | 7.26 | 0.0 | 0 | 0.00 | 0.00 | 0.00 | 0.00 |
| 05/08/26 12:08:23 AM | 35 | 0.0 | 0.0 | 55 | 76 | 71.9 | 61.9 | 30.002 | 7.26 | 0.0 | 0 | 0.00 | 0.00 | 0.00 | 0.00 |
| 05/08/26 12:09:33 AM | 35 | 0.0 | 0.0 | 55 | 77 | 71.9 | 61.8 | 30.001 | 7.26 | 0.0 | 0 | 0.00 | 0.00 | 0.00 | 0.00 |
| 05/08/26 12:10:24 AM | 38 | 0.0 | 0.0 | 55 | 77 | 72.0 | 61.8 | 30.001 | 7.26 | 0.0 | 0 | 0.00 | 0.00 | 0.00 | 0.00 |
| 05/08/26 12:11:34 AM | 38 | 0.0 | 0.0 | 55 | 77 | 72.0 | 61.8 | 30.001 | 7.26 | 0.0 | 0 | 0.00 | 0.00 | 0.00 | 0.00 |
| 05/08/26 12:12:26 AM | 36 | 0.0 | 0.0 | 55 | 77 | 72.0 | 61.8 | 30.002 | 7.26 | 0.0 | 0 | 0.00 | 0.00 | 0.00 | 0.00 |
| 05/08/26 12:13:18 AM | 35 | 0.0 | 0.0 | 55 | 77 | 72.0 | 61.8 | 30.003 | 7.26 | 0.0 | 0 | 0.00 | 0.00 | 0.00 | 0.00 |
| 05/08/26 12:14:28 AM | 32 | 0.0 | 0.0 | 55 | 77 | 72.0 | 61.8 | 30.002 | 7.26 | 0.0 | 0 | 0.00 | 0.00 | 0.00 | 0.00 |
| 05/08/26 12:15:20 AM | 31 | 0.0 | 0.0 | 55 | 77 | 72.0 | 61.7 | 30.004 | 7.26 | 0.0 | 0 | 0.00 | 0.00 | 0.00 | 0.00 |
| 05/08/26 12:16:33 AM | 31 | 0.0 | 0.0 | 55 | 77 | 72.0 | 61.7 | 30.002 | 7.26 | 0.0 | 0 | 0.00 | 0.00 | 0.00 | 0.00 |
| 05/08/26 12:17:21 AM | 35 | 0.0 | 0.0 | 55 | 77 | 72.0 | 61.8 | 30.001 | 7.26 | 0.0 | 0 | 0.00 | 0.00 | 0.00 | 0.00 |
| 05/08/26 12:18:34 AM | 36 | 0.0 | 0.0 | 55 | 77 | 72.0 | 61.8 | 30.001 | 7.26 | 0.0 | 0 | 0.00 | 0.00 | 0.00 | 0.00 |
| 05/08/26 12:19:26 AM | 35 | 0.0 | 0.0 | 55 | 77 | 72.0 | 61.8 | 30.004 | 7.26 | 0.0 | 0 | 0.00 | 0.00 | 0.00 | 0.00 |
| 05/08/26 12:20:36 AM | 38 | 0.0 | 0.0 | 55 | 77 | 71.9 | 61.8 | 30.001 | 7.26 | 0.0 | 0 | 0.00 | 0.00 | 0.00 | 0.00 |
| 05/08/26 12:21:28 AM | 38 | 0.0 | 0.0 | 55 | 77 | 72.0 | 61.8 | 30.000 | 7.26 | 0.0 | 0 | 0.00 | 0.00 | 0.00 | 0.00 |
| 05/08/26 12:22:19 AM | 38 | 0.0 | 0.0 | 55 | 77 | 72.0 | 61.8 | 30.001 | 7.26 | 0.0 | 0 | 0.00 | 0.00 | 0.00 | 0.00 |
| 05/08/26 12:23:29 AM | 38 | 0.0 | 0.0 | 55 | 77 | 71.9 | 61.8 | 30.002 | 7.26 | 0.0 | 0 | 0.00 | 0.00 | 0.00 | 0.00 |
| 05/08/26 12:24:24 AM | 38 | 0.0 | 0.0 | 55 | 77 | 72.0 | 61.8 | 30.003 | 7.26 | 0.0 | 0 | 0.00 | 0.00 | 0.00 | 0.00 |
| 05/08/26 12:29:41 AM | 38 | 0.0 | 0.0 | 55 | 77 | 72.4 | 61.8 | 30.003 | 7.26 | 0.0 | 0 | 0.00 | 0.00 | 0.00 | 0.00 |
| 05/08/26 12:30:54 AM | 38 | 0.0 | 0.0 | 55 | 77 | 72.5 | 61.6 | 30.003 | 7.26 | 0.0 | 0 | 0.00 | 0.00 | 0.00 | 0.00 |
| 05/08/26 12:31:25 AM | 38 | 0.0 | 0.0 | 55 | 77 | 72.4 | 61.6 | 30.001 | 7.26 | 0.0 | 0 | 0.00 | 0.00 | 0.00 | 0.00 |
| 05/08/26 12:32:17 AM | 38 | 0.0 | 0.0 | 55 | 77 | 72.3 | 61.6 | 30.002 | 7.26 | 0.0 | 0 | 0.00 | 0.00 | 0.00 | 0.00 |
| 05/08/26 12:33:30 AM | 38 | 0.0 | 0.0 | 55 | 77 | 72.2 | 61.6 | 30.003 | 7.26 | 0.0 | 0 | 0.00 | 0.00 | 0.00 | 0.00 |
| 05/08/26 12:34:19 AM | 32 | 0.0 | 0.0 | 55 | 77 | 72.2 | 61.6 | 30.000 | 7.26 | 0.0 | 0 | 0.00 | 0.00 | 0.00 | 0.00 |
| 05/08/26 12:35:28 AM | 38 | 0.0 | 0.0 | 55 | 77 | 72.1 | 61.5 | 30.000 | 7.26 | 0.0 | 0 | 0.00 | 0.00 | 0.00 | 0.00 |
| 05/08/26 12:36:23 AM | 38 | 0.0 | 0.0 | 55 | 77 | 72.2 | 61.5 | 30.002 | 7.26 | 0.0 | 0 | 0.00 | 0.00 | 0.00 | 0.00 |
| 05/08/26 12:37:36 AM | 36 | 0.0 | 0.0 | 55 | 77 | 72.1 | 61.4 | 30.003 | 7.26 | 0.0 | 0 | 0.00 | 0.00 | 0.00 | 0.00 |
| 05/08/26 12:38:28 AM | 38 | 0.0 | 0.0 | 55 | 77 | 72.1 | 61.4 | 30.000 | 7.26 | 0.0 | 0 | 0.00 | 0.00 | 0.00 | 0.00 |
| 05/08/26 12:39:35 AM | 39 | 0.0 | 0.0 | 55 | 77 | 72.1 | 61.4 | 30.001 | 7.26 | 0.0 | 0 | 0.00 | 0.00 | 0.00 | 0.00 |
| 05/08/26 12:40:27 AM | 38 | 0.0 | 0.0 | 55 | 77 | 72.1 | 61.4 | 29.999 | 7.26 | 0.0 | 0 | 0.00 | 0.00 | 0.00 | 0.00 |
| 05/08/26 12:41:19 AM | 36 | 0.0 | 0.0 | 55 | 77 | 72.0 | 61.3 | 30.000 | 7.26 | 0.0 | 0 | 0.00 | 0.00 | 0.00 | 0.00 |
| 05/08/26 12:42:29 AM | 38 | 0.0 | 0.0 | 55 | 77 | 72.1 | 61.3 | 30.000 | 7.26 | 0.0 | 0 | 0.00 | 0.00 | 0.00 | 0.00 |
| 05/08/26 12:43:20 AM | 35 | 0.0 | 0.0 | 55 | 77 | 72.0 | 61.3 | 30.002 | 7.26 | 0.0 | 0 | 0.00 | 0.00 | 0.00 | 0.00 |
| 05/08/26 12:44:30 AM | 35 | 0.0 | 0.0 | 55 | 77 | 72.0 | 61.3 | 29.999 | 7.26 | 0.0 | 0 | 0.00 | 0.00 | 0.00 | 0.00 |
| 05/08/26 12:45:43 AM | 36 | 0.0 | 0.0 | 55 | 77 | 72.0 | 61.2 | 29.998 | 7.26 | 0.0 | 0 | 0.00 | 0.00 | 0.00 | 0.00 |
| 05/08/26 12:46:35 AM | 36 | 0.0 | 0.0 | 55 | 77 | 72.0 | 61.2 | 30.000 | 7.26 | 0.0 | 0 | 0.00 | 0.00 | 0.00 | 0.00 |
| 05/08/26 12:47:27 AM | 38 | 0.0 | 0.0 | 55 | 77 | 72.0 | 61.1 | 29.999 | 7.26 | 0.0 | 0 | 0.00 | 0.00 | 0.00 | 0.00 |
| 05/08/26 12:48:19 AM | 35 | 0.0 | 0.0 | 55 | 77 | 72.0 | 61.1 | 30.000 | 7.26 | 0.0 | 0 | 0.00 | 0.00 | 0.00 | 0.00 |
| 05/08/26 12:49:32 AM | 32 | 0.0 | 0.0 | 55 | 77 | 72.0 | 61.1 | 30.000 | 7.26 | 0.0 | 0 | 0.00 | 0.00 | 0.00 | 0.00 |
| 05/08/26 12:50:21 AM | 32 | 0.0 | 0.0 | 55 | 77 | 72.0 | 61.1 | 30.000 | 7.26 | 0.0 | 0 | 0.00 | 0.00 | 0.00 | 0.00 |
| 05/08/26 12:51:31 AM | 38 | 0.0 | 0.0 | 55 | 78 | 71.9 | 61.0 | 29.999 | 7.26 | 0.0 | 0 | 0.00 | 0.00 | 0.00 | 0.00 |
| 05/08/26 12:52:22 AM | 31 | 0.0 | 0.0 | 55 | 78 | 72.0 | 61.0 | 30.001 | 7.26 | 0.0 | 0 | 0.00 | 0.00 | 0.00 | 0.00 |
| 05/08/26 12:53:35 AM | 31 | 0.0 | 0.0 | 55 | 78 | 71.9 | 61.0 | 29.999 | 7.26 | 0.0 | 0 | 0.00 | 0.00 | 0.00 | 0.00 |
| 05/08/26 12:54:27 AM | 36 | 0.0 | 0.0 | 55 | 78 | 71.9 | 60.9 | 29.998 | 7.26 | 0.0 | 0 | 0.00 | 0.00 | 0.00 | 0.00 |
| 05/08/26 12:55:19 AM | 36 | 0.0 | 0.0 | 55 | 78 | 71.9 | 60.9 | 29.998 | 7.26 | 0.0 | 0 | 0.00 | 0.00 | 0.00 | 0.00 |
| 05/08/26 12:56:26 AM | 35 | 0.0 | 0.0 | 55 | 78 | 71.9 | 60.9 | 29.999 | 7.26 | 0.0 | 0 | 0.00 | 0.00 | 0.00 | 0.00 |
| 05/08/26 12:57:18 AM | 36 | 0.0 | 0.0 | 55 | 78 | 71.9 | 60.8 | 29.998 | 7.26 | 0.0 | 0 | 0.00 | 0.00 | 0.00 | 0.00 |
| 05/08/26 12:58:31 AM | 36 | 0.0 | 0.0 | 55 | 78 | 71.9 | 60.8 | 30.000 | 7.26 | 0.0 | 0 | 0.00 | 0.00 | 0.00 | 0.00 |
| 05/08/26 12:59:23 AM | 38 | 0.0 | 0.0 | 55 | 78 | 71.9 | 60.8 | 29.997 | 7.26 | 0.0 | 0 | 0.00 | 0.00 | 0.00 | 0.00 |
| 05/08/26 1:00:36 AM | 38 | 0.0 | 0.0 | 55 | 78 | 71.9 | 60.7 | 29.998 | 7.26 | 0.0 | 0 | 0.00 | 0.00 | 0.00 | 0.00 |
| 05/08/26 1:01:24 AM | 35 | 0.0 | 0.0 | 55 | 78 | 71.9 | 60.7 | 29.998 | 7.26 | 0.0 | 0 | 0.00 | 0.00 | 0.00 | 0.00 |
| 05/08/26 1:02:37 AM | 35 | 0.0 | 0.0 | 55 | 78 | 71.9 | 60.7 | 29.996 | 7.26 | 0.0 | 0 | 0.00 | 0.00 | 0.00 | 0.00 |
| 05/08/26 1:03:26 AM | 38 | 0.0 | 0.0 | 55 | 78 | 71.9 | 60.7 | 29.995 | 7.26 | 0.0 | 0 | 0.00 | 0.00 | 0.00 | 0.00 |
| 05/08/26 1:04:21 AM | 31 | 0.0 | 0.0 | 55 | 78 | 71.8 | 60.6 | 29.996 | 7.26 | 0.0 | 0 | 0.00 | 0.00 | 0.00 | 0.00 |
| 05/08/26 1:05:31 AM | 31 | 0.0 | 0.0 | 55 | 78 | 71.9 | 60.6 | 29.996 | 7.26 | 0.0 | 0 | 0.00 | 0.00 | 0.00 | 0.00 |
| 05/08/26 1:06:20 AM | 36 | 0.0 | 0.0 | 55 | 78 | 71.8 | 60.6 | 29.996 | 7.26 | 0.0 | 0 | 0.00 | 0.00 | 0.00 | 0.00 |
| 05/08/26 1:07:30 AM | 35 | 0.0 | 0.0 | 55 | 78 | 71.8 | 60.5 | 29.995 | 7.26 | 0.0 | 0 | 0.00 | 0.00 | 0.00 | 0.00 |
| 05/08/26 1:08:21 AM | 35 | 0.0 | 0.0 | 55 | 79 | 71.8 | 60.5 | 29.994 | 7.26 | 0.0 | 0 | 0.00 | 0.00 | 0.00 | 0.00 |
| 05/08/26 1:09:34 AM | 36 | 0.0 | 0.0 | 55 | 79 | 71.9 | 60.5 | 29.993 | 7.26 | 0.0 | 0 | 0.00 | 0.00 | 0.00 | 0.00 |
| 05/08/26 1:10:26 AM | 36 | 0.0 | 0.0 | 55 | 79 | 71.9 | 60.5 | 29.996 | 7.26 | 0.0 | 0 | 0.00 | 0.00 | 0.00 | 0.00 |
| 05/08/26 1:11:18 AM | 34 | 0.0 | 0.0 | 55 | 79 | 71.9 | 60.4 | 29.995 | 7.26 | 0.0 | 0 | 0.00 | 0.00 | 0.00 | 0.00 |
| 05/08/26 1:12:28 AM | 38 | 0.0 | 0.0 | 55 | 79 | 71.9 | 60.4 | 29.995 | 7.26 | 0.0 | 0 | 0.00 | 0.00 | 0.00 | 0.00 |
| 05/08/26 1:13:20 AM | 36 | 0.0 | 0.0 | 55 | 79 | 71.9 | 60.4 | 29.994 | 7.26 | 0.0 | 0 | 0.00 | 0.00 | 0.00 | 0.00 |
| 05/08/26 1:14:30 AM | 34 | 0.0 | 0.0 | 55 | 79 | 71.9 | 60.3 | 29.996 | 7.26 | 0.0 | 0 | 0.00 | 0.00 | 0.00 | 0.00 |
| 05/08/26 1:15:21 AM | 36 | 0.0 | 0.0 | 55 | 79 | 71.9 | 60.3 | 29.993 | 7.26 | 0.0 | 0 | 0.00 | 0.00 | 0.00 | 0.00 |
| 05/08/26 1:16:34 AM | 38 | 0.0 | 0.0 | 55 | 79 | 71.8 | 60.3 | 29.993 | 7.26 | 0.0 | 0 | 0.00 | 0.00 | 0.00 | 0.00 |
| 05/08/26 1:17:20 AM | 38 | 0.0 | 0.0 | 55 | 79 | 71.9 | 60.2 | 29.996 | 7.26 | 0.0 | 0 | 0.00 | 0.00 | 0.00 | 0.00 |
| 05/08/26 1:18:33 AM | 34 | 0.0 | 0.0 | 55 | 79 | 71.8 | 60.2 | 29.995 | 7.26 | 0.0 | 0 | 0.00 | 0.00 | 0.00 | 0.00 |
| 05/08/26 1:19:25 AM | 35 | 0.0 | 0.0 | 55 | 79 | 71.8 | 60.2 | 29.993 | 7.26 | 0.0 | 0 | 0.00 | 0.00 | 0.00 | 0.00 |
| 05/08/26 1:20:17 AM | 34 | 0.0 | 0.0 | 55 | 79 | 71.8 | 60.2 | 29.995 | 7.26 | 0.0 | 0 | 0.00 | 0.00 | 0.00 | 0.00 |
| 05/08/26 1:21:30 AM | 38 | 0.0 | 0.0 | 55 | 79 | 71.8 | 60.1 | 29.995 | 7.26 | 0.0 | 0 | 0.00 | 0.00 | 0.00 | 0.00 |
| 05/08/26 1:22:19 AM | 31 | 0.0 | 0.0 | 55 | 79 | 71.8 | 60.1 | 29.995 | 7.26 | 0.0 | 0 | 0.00 | 0.00 | 0.00 | 0.00 |
| 05/08/26 1:23:29 AM | 38 | 0.0 | 0.0 | 55 | 79 | 71.9 | 60.1 | 29.996 | 7.26 | 0.0 | 0 | 0.00 | 0.00 | 0.00 | 0.00 |
| 05/08/26 1:24:17 AM | 36 | 0.0 | 0.0 | 55 | 79 | 71.8 | 60.1 | 29.995 | 7.26 | 0.0 | 0 | 0.00 | 0.00 | 0.00 | 0.00 |
| 05/08/26 1:25:30 AM | 36 | 0.0 | 0.0 | 55 | 79 | 71.8 | 60.1 | 29.993 | 7.26 | 0.0 | 0 | 0.00 | 0.00 | 0.00 | 0.00 |
| 05/08/26 1:26:19 AM | 35 | 0.0 | 0.0 | 55 | 79 | 71.8 | 60.0 | 29.992 | 7.26 | 0.0 | 0 | 0.00 | 0.00 | 0.00 | 0.00 |
| 05/08/26 1:27:29 AM | 38 | 0.0 | 0.0 | 55 | 79 | 71.8 | 60.0 | 29.994 | 7.26 | 0.0 | 0 | 0.00 | 0.00 | 0.00 | 0.00 |
| 05/08/26 1:28:21 AM | 36 | 0.0 | 0.0 | 55 | 80 | 71.8 | 60.0 | 29.994 | 7.26 | 0.0 | 0 | 0.00 | 0.00 | 0.00 | 0.00 |
| 05/08/26 1:29:34 AM | 34 | 0.0 | 0.0 | 55 | 80 | 71.8 | 60.0 | 29.991 | 7.26 | 0.0 | 0 | 0.00 | 0.00 | 0.00 | 0.00 |
| 05/08/26 1:30:26 AM | 34 | 0.0 | 0.0 | 55 | 80 | 71.8 | 59.9 | 29.991 | 7.26 | 0.0 | 0 | 0.00 | 0.00 | 0.00 | 0.00 |
| 05/08/26 1:31:20 AM | 38 | 0.0 | 0.0 | 55 | 80 | 71.8 | 59.9 | 29.990 | 7.26 | 0.0 | 0 | 0.00 | 0.00 | 0.00 | 0.00 |
| 05/08/26 1:32:30 AM | 38 | 0.0 | 0.0 | 55 | 80 | 71.8 | 59.9 | 29.991 | 7.26 | 0.0 | 0 | 0.00 | 0.00 | 0.00 | 0.00 |
| 05/08/26 1:33:16 AM | 38 | 0.0 | 0.0 | 55 | 80 | 71.7 | 59.9 | 29.995 | 7.26 | 0.0 | 0 | 0.00 | 0.00 | 0.00 | 0.00 |
| 05/08/26 1:34:29 AM | 38 | 0.0 | 0.0 | 55 | 80 | 71.8 | 59.9 | 29.989 | 7.26 | 0.0 | 0 | 0.00 | 0.00 | 0.00 | 0.00 |
| 05/08/26 1:35:21 AM | 38 | 0.0 | 0.0 | 55 | 80 | 71.8 | 59.8 | 29.989 | 7.26 | 0.0 | 0 | 0.00 | 0.00 | 0.00 | 0.00 |
| 05/08/26 1:36:34 AM | 31 | 0.0 | 0.0 | 55 | 80 | 71.7 | 59.8 | 29.991 | 7.26 | 0.0 | 0 | 0.00 | 0.00 | 0.00 | 0.00 |
| 05/08/26 1:37:26 AM | 36 | 0.0 | 0.0 | 55 | 80 | 71.7 | 59.8 | 29.988 | 7.26 | 0.0 | 0 | 0.00 | 0.00 | 0.00 | 0.00 |
| 05/08/26 1:38:33 AM | 35 | 0.0 | 0.0 | 55 | 80 | 71.7 | 59.8 | 29.988 | 7.26 | 0.0 | 0 | 0.00 | 0.00 | 0.00 | 0.00 |
| 05/08/26 1:39:24 AM | 34 | 0.0 | 0.0 | 55 | 80 | 71.7 | 59.7 | 29.988 | 7.26 | 0.0 | 0 | 0.00 | 0.00 | 0.00 | 0.00 |
| 05/08/26 1:40:16 AM | 38 | 0.0 | 0.0 | 55 | 80 | 71.7 | 59.7 | 29.988 | 7.26 | 0.0 | 0 | 0.00 | 0.00 | 0.00 | 0.00 |
| 05/08/26 1:41:29 AM | 35 | 0.0 | 0.0 | 55 | 80 | 71.7 | 59.6 | 29.988 | 7.26 | 0.0 | 0 | 0.00 | 0.00 | 0.00 | 0.00 |
| 05/08/26 1:42:21 AM | 34 | 0.0 | 0.0 | 55 | 80 | 71.7 | 59.6 | 29.989 | 7.26 | 0.0 | 0 | 0.00 | 0.00 | 0.00 | 0.00 |
| 05/08/26 1:43:28 AM | 36 | 0.0 | 0.0 | 55 | 80 | 71.7 | 59.6 | 29.988 | 7.26 | 0.0 | 0 | 0.00 | 0.00 | 0.00 | 0.00 |
| 05/08/26 1:44:20 AM | 38 | 0.0 | 0.0 | 55 | 80 | 71.7 | 59.6 | 29.988 | 7.26 | 0.0 | 0 | 0.00 | 0.00 | 0.00 | 0.00 |
| 05/08/26 1:45:33 AM | 32 | 0.0 | 0.0 | 55 | 80 | 71.7 | 59.5 | 29.988 | 7.26 | 0.0 | 0 | 0.00 | 0.00 | 0.00 | 0.00 |
| 05/08/26 1:46:25 AM | 35 | 0.0 | 0.0 | 55 | 80 | 71.7 | 59.5 | 29.986 | 7.26 | 0.0 | 0 | 0.00 | 0.00 | 0.00 | 0.00 |
| 05/08/26 1:47:17 AM | 38 | 0.0 | 0.0 | 55 | 80 | 71.7 | 59.5 | 29.988 | 7.26 | 0.0 | 0 | 0.00 | 0.00 | 0.00 | 0.00 |
| 05/08/26 1:48:30 AM | 38 | 0.0 | 0.0 | 55 | 80 | 71.7 | 59.5 | 29.989 | 7.26 | 0.0 | 0 | 0.00 | 0.00 | 0.00 | 0.00 |
| 05/08/26 1:49:15 AM | 38 | 0.0 | 0.0 | 55 | 80 | 71.7 | 59.5 | 29.988 | 7.26 | 0.0 | 0 | 0.00 | 0.00 | 0.00 | 0.00 |
| 05/08/26 1:50:28 AM | 35 | 0.0 | 0.0 | 55 | 80 | 71.7 | 59.4 | 29.986 | 7.26 | 0.0 | 0 | 0.00 | 0.00 | 0.00 | 0.00 |
| 05/08/26 1:51:23 AM | 35 | 0.0 | 0.0 | 55 | 80 | 71.7 | 59.4 | 29.985 | 7.26 | 0.0 | 0 | 0.00 | 0.00 | 0.00 | 0.00 |
| 05/08/26 1:52:33 AM | 38 | 0.0 | 0.0 | 55 | 80 | 71.7 | 59.4 | 29.985 | 7.26 | 0.0 | 0 | 0.00 | 0.00 | 0.00 | 0.00 |
| 05/08/26 1:53:25 AM | 35 | 0.0 | 0.0 | 55 | 80 | 71.7 | 59.4 | 29.984 | 7.26 | 0.0 | 0 | 0.00 | 0.00 | 0.00 | 0.00 |
| 05/08/26 1:54:35 AM | 38 | 0.0 | 0.0 | 55 | 80 | 71.7 | 59.3 | 29.984 | 7.26 | 0.0 | 0 | 0.00 | 0.00 | 0.00 | 0.00 |
| 05/08/26 1:55:27 AM | 36 | 0.0 | 0.0 | 55 | 81 | 71.6 | 59.3 | 29.987 | 7.26 | 0.0 | 0 | 0.00 | 0.00 | 0.00 | 0.00 |
| 05/08/26 1:56:19 AM | 35 | 0.0 | 0.0 | 55 | 81 | 71.7 | 59.3 | 29.984 | 7.26 | 0.0 | 0 | 0.00 | 0.00 | 0.00 | 0.00 |
| 05/08/26 1:57:32 AM | 34 | 0.0 | 0.0 | 55 | 81 | 71.6 | 59.3 | 29.984 | 7.26 | 0.0 | 0 | 0.00 | 0.00 | 0.00 | 0.00 |
| 05/08/26 1:58:23 AM | 35 | 0.0 | 0.0 | 55 | 81 | 71.6 | 59.2 | 29.984 | 7.26 | 0.0 | 0 | 0.00 | 0.00 | 0.00 | 0.00 |
| 05/08/26 1:59:15 AM | 38 | 0.0 | 0.0 | 55 | 81 | 71.6 | 59.2 | 29.985 | 7.26 | 0.0 | 0 | 0.00 | 0.00 | 0.00 | 0.00 |
| 05/08/26 2:00:46 AM | 38 | 0.0 | 0.0 | 55 | 81 | 71.6 | 59.2 | 29.986 | 7.26 | 0.0 | 0 | 0.00 | 0.00 | 0.00 | 0.00 |
| 05/08/26 2:01:17 AM | 32 | 0.0 | 2.0 | 55 | 81 | 71.6 | 59.1 | 29.984 | 7.26 | 0.0 | 0 | 0.00 | 0.00 | 0.00 | 0.00 |
| 05/08/26 2:02:30 AM | 36 | 1.0 | 3.0 | 55 | 81 | 71.6 | 59.1 | 29.982 | 7.26 | 0.0 | 0 | 0.00 | 0.00 | 0.00 | 0.00 |
| 05/08/26 2:03:22 AM | 37 | 0.0 | 3.0 | 55 | 81 | 71.6 | 59.1 | 29.983 | 7.26 | 0.0 | 0 | 0.00 | 0.00 | 0.00 | 0.00 |
| 05/08/26 2:04:35 AM | 37 | 0.0 | 3.0 | 55 | 81 | 71.6 | 59.1 | 29.983 | 7.26 | 0.0 | 0 | 0.00 | 0.00 | 0.00 | 0.00 |
| 05/08/26 2:05:21 AM | 36 | 0.0 | 3.0 | 55 | 81 | 71.6 | 59.1 | 29.982 | 7.26 | 0.0 | 0 | 0.00 | 0.00 | 0.00 | 0.00 |
| 05/08/26 2:06:34 AM | 37 | 0.0 | 3.0 | 55 | 81 | 71.6 | 59.1 | 29.986 | 7.26 | 0.0 | 0 | 0.00 | 0.00 | 0.00 | 0.00 |
| 05/08/26 2:07:26 AM | 36 | 0.0 | 3.0 | 55 | 81 | 71.5 | 59.1 | 29.984 | 7.26 | 0.0 | 0 | 0.00 | 0.00 | 0.00 | 0.00 |
| 05/08/26 2:08:17 AM | 38 | 0.0 | 3.0 | 55 | 81 | 71.6 | 59.1 | 29.983 | 7.26 | 0.0 | 0 | 0.00 | 0.00 | 0.00 | 0.00 |
| 05/08/26 2:09:30 AM | 35 | 0.0 | 3.0 | 55 | 82 | 71.6 | 59.1 | 29.983 | 7.26 | 0.0 | 0 | 0.00 | 0.00 | 0.00 | 0.00 |
| 05/08/26 2:10:22 AM | 37 | 0.0 | 3.0 | 55 | 82 | 71.5 | 59.1 | 29.982 | 7.26 | 0.0 | 0 | 0.00 | 0.00 | 0.00 | 0.00 |
| 05/08/26 2:11:29 AM | 38 | 0.0 | 3.0 | 55 | 82 | 71.5 | 59.0 | 29.981 | 7.26 | 0.0 | 0 | 0.00 | 0.00 | 0.00 | 0.00 |
| 05/08/26 2:12:21 AM | 38 | 0.0 | 3.0 | 55 | 82 | 71.5 | 59.0 | 29.981 | 7.26 | 0.0 | 0 | 0.00 | 0.00 | 0.00 | 0.00 |
| 05/08/26 2:13:34 AM | 36 | 0.0 | 3.0 | 55 | 82 | 71.5 | 59.0 | 29.981 | 7.26 | 0.0 | 0 | 0.00 | 0.00 | 0.00 | 0.00 |
| 05/08/26 2:14:29 AM | 36 | 0.0 | 3.0 | 55 | 82 | 71.5 | 59.0 | 29.981 | 7.26 | 0.0 | 0 | 0.00 | 0.00 | 0.00 | 0.00 |
| 05/08/26 2:15:21 AM | 38 | 0.0 | 3.0 | 55 | 82 | 71.5 | 59.0 | 29.981 | 7.26 | 0.0 | 0 | 0.00 | 0.00 | 0.00 | 0.00 |
| 05/08/26 2:16:28 AM | 38 | 0.0 | 3.0 | 55 | 82 | 71.5 | 59.0 | 29.981 | 7.26 | 0.0 | 0 | 0.00 | 0.00 | 0.00 | 0.00 |
| 05/08/26 2:17:20 AM | 36 | 0.0 | 3.0 | 55 | 82 | 71.5 | 59.0 | 29.982 | 7.26 | 0.0 | 0 | 0.00 | 0.00 | 0.00 | 0.00 |
| 05/08/26 2:18:33 AM | 37 | 0.0 | 3.0 | 55 | 82 | 71.5 | 58.9 | 29.980 | 7.26 | 0.0 | 0 | 0.00 | 0.00 | 0.00 | 0.00 |
| 05/08/26 2:19:24 AM | 32 | 0.0 | 3.0 | 55 | 82 | 71.5 | 58.9 | 29.980 | 7.26 | 0.0 | 0 | 0.00 | 0.00 | 0.00 | 0.00 |
| 05/08/26 2:20:16 AM | 34 | 0.0 | 3.0 | 55 | 82 | 71.5 | 58.9 | 29.980 | 7.26 | 0.0 | 0 | 0.00 | 0.00 | 0.00 | 0.00 |
| 05/08/26 2:21:23 AM | 38 | 0.0 | 3.0 | 55 | 82 | 71.5 | 58.9 | 29.982 | 7.26 | 0.0 | 0 | 0.00 | 0.00 | 0.00 | 0.00 |
| 05/08/26 2:22:33 AM | 38 | 0.0 | 3.0 | 55 | 82 | 71.5 | 58.9 | 29.981 | 7.26 | 0.0 | 0 | 0.00 | 0.00 | 0.00 | 0.00 |
| 05/08/26 2:23:25 AM | 35 | 0.0 | 3.0 | 55 | 82 | 71.5 | 58.8 | 29.982 | 7.26 | 0.0 | 0 | 0.00 | 0.00 | 0.00 | 0.00 |
| 05/08/26 2:24:17 AM | 32 | 1.0 | 3.0 | 55 | 82 | 71.5 | 58.8 | 29.980 | 7.26 | 0.0 | 0 | 0.00 | 0.00 | 0.00 | 0.00 |
| 05/08/26 2:25:30 AM | 38 | 0.0 | 3.0 | 55 | 82 | 71.4 | 58.8 | 29.980 | 7.26 | 0.0 | 0 | 0.00 | 0.00 | 0.00 | 0.00 |
| 05/08/26 2:26:22 AM | 34 | 0.0 | 3.0 | 55 | 82 | 71.5 | 58.8 | 29.980 | 7.26 | 0.0 | 0 | 0.00 | 0.00 | 0.00 | 0.00 |
| 05/08/26 2:27:29 AM | 38 | 0.0 | 3.0 | 55 | 82 | 71.5 | 58.8 | 29.979 | 7.26 | 0.0 | 0 | 0.00 | 0.00 | 0.00 | 0.00 |
| 05/08/26 2:28:21 AM | 34 | 0.0 | 3.0 | 55 | 82 | 71.5 | 58.7 | 29.981 | 7.26 | 0.0 | 0 | 0.00 | 0.00 | 0.00 | 0.00 |
| 05/08/26 2:29:34 AM | 38 | 0.0 | 3.0 | 55 | 82 | 71.5 | 58.7 | 29.980 | 7.26 | 0.0 | 0 | 0.00 | 0.00 | 0.00 | 0.00 |
| 05/08/26 2:30:29 AM | 38 | 0.0 | 3.0 | 55 | 82 | 71.5 | 58.7 | 29.981 | 7.26 | 0.0 | 0 | 0.00 | 0.00 | 0.00 | 0.00 |
| 05/08/26 2:31:18 AM | 34 | 0.0 | 3.0 | 55 | 82 | 71.5 | 58.7 | 29.979 | 7.26 | 0.0 | 0 | 0.00 | 0.00 | 0.00 | 0.00 |
| 05/08/26 2:32:28 AM | 36 | 0.0 | 3.0 | 55 | 82 | 71.5 | 58.7 | 29.979 | 7.26 | 0.0 | 0 | 0.00 | 0.00 | 0.00 | 0.00 |
| 05/08/26 2:33:16 AM | 38 | 0.0 | 3.0 | 55 | 82 | 71.5 | 58.7 | 29.980 | 7.26 | 0.0 | 0 | 0.00 | 0.00 | 0.00 | 0.00 |
| 05/08/26 2:34:32 AM | 38 | 0.0 | 3.0 | 55 | 82 | 71.4 | 58.6 | 29.981 | 7.26 | 0.0 | 0 | 0.00 | 0.00 | 0.00 | 0.00 |
| 05/08/26 2:35:24 AM | 36 | 0.0 | 3.0 | 55 | 82 | 71.5 | 58.6 | 29.979 | 7.26 | 0.0 | 0 | 0.00 | 0.00 | 0.00 | 0.00 |
| 05/08/26 2:36:34 AM | 38 | 0.0 | 3.0 | 55 | 82 | 71.5 | 58.6 | 29.979 | 7.26 | 0.0 | 0 | 0.00 | 0.00 | 0.00 | 0.00 |
| 05/08/26 2:37:20 AM | 38 | 1.0 | 3.0 | 55 | 82 | 71.5 | 58.6 | 29.980 | 7.26 | 0.0 | 0 | 0.00 | 0.00 | 0.00 | 0.00 |
| 05/08/26 2:38:33 AM | 32 | 0.0 | 3.0 | 55 | 82 | 71.5 | 58.5 | 29.980 | 7.26 | 0.0 | 0 | 0.00 | 0.00 | 0.00 | 0.00 |
| 05/08/26 2:39:25 AM | 36 | 1.0 | 3.0 | 55 | 82 | 71.5 | 58.5 | 29.981 | 7.26 | 0.0 | 0 | 0.00 | 0.00 | 0.00 | 0.00 |
| 05/08/26 2:40:17 AM | 38 | 0.0 | 3.0 | 55 | 82 | 71.5 | 58.4 | 29.980 | 7.26 | 0.0 | 0 | 0.00 | 0.00 | 0.00 | 0.00 |
| 05/08/26 2:41:30 AM | 37 | 0.0 | 3.0 | 55 | 82 | 71.4 | 58.4 | 29.980 | 7.26 | 0.0 | 0 | 0.00 | 0.00 | 0.00 | 0.00 |
| 05/08/26 2:42:19 AM | 38 | 0.0 | 3.0 | 55 | 82 | 71.4 | 58.4 | 29.979 | 7.26 | 0.0 | 0 | 0.00 | 0.00 | 0.00 | 0.00 |
| 05/08/26 2:43:26 AM | 38 | 0.0 | 3.0 | 55 | 82 | 71.4 | 58.3 | 29.980 | 7.26 | 0.0 | 0 | 0.00 | 0.00 | 0.00 | 0.00 |
| 05/08/26 2:44:21 AM | 36 | 0.0 | 3.0 | 55 | 82 | 71.4 | 58.3 | 29.980 | 7.26 | 0.0 | 0 | 0.00 | 0.00 | 0.00 | 0.00 |
| 05/08/26 2:45:34 AM | 36 | 0.0 | 3.0 | 55 | 83 | 71.4 | 58.2 | 29.978 | 7.26 | 0.0 | 0 | 0.00 | 0.00 | 0.00 | 0.00 |
| 05/08/26 2:46:23 AM | 34 | 0.0 | 3.0 | 55 | 83 | 71.4 | 58.2 | 29.977 | 7.26 | 0.0 | 0 | 0.00 | 0.00 | 0.00 | 0.00 |
| 05/08/26 2:47:36 AM | 36 | 0.0 | 3.0 | 55 | 83 | 71.4 | 58.2 | 29.979 | 7.26 | 0.0 | 0 | 0.00 | 0.00 | 0.00 | 0.00 |
| 05/08/26 2:48:24 AM | 36 | 0.0 | 3.0 | 55 | 83 | 71.4 | 58.1 | 29.980 | 7.26 | 0.0 | 0 | 0.00 | 0.00 | 0.00 | 0.00 |
| 05/08/26 2:49:34 AM | 38 | 0.0 | 3.0 | 55 | 83 | 71.4 | 58.1 | 29.977 | 7.26 | 0.0 | 0 | 0.00 | 0.00 | 0.00 | 0.00 |
| 05/08/26 2:50:26 AM | 37 | 0.0 | 3.0 | 55 | 83 | 71.4 | 58.1 | 29.978 | 7.26 | 0.0 | 0 | 0.00 | 0.00 | 0.00 | 0.00 |
| 05/08/26 2:51:18 AM | 38 | 0.0 | 3.0 | 55 | 83 | 71.4 | 58.1 | 29.979 | 7.26 | 0.0 | 0 | 0.00 | 0.00 | 0.00 | 0.00 |
| 05/08/26 2:52:31 AM | 32 | 0.0 | 3.0 | 55 | 83 | 71.3 | 58.0 | 29.978 | 7.26 | 0.0 | 0 | 0.00 | 0.00 | 0.00 | 0.00 |
| 05/08/26 2:53:20 AM | 35 | 0.0 | 3.0 | 55 | 83 | 71.3 | 58.0 | 29.979 | 7.26 | 0.0 | 0 | 0.00 | 0.00 | 0.00 | 0.00 |
| 05/08/26 2:54:30 AM | 38 | 0.0 | 3.0 | 55 | 83 | 71.4 | 58.0 | 29.978 | 7.26 | 0.0 | 0 | 0.00 | 0.00 | 0.00 | 0.00 |
| 05/08/26 2:55:25 AM | 38 | 0.0 | 3.0 | 55 | 83 | 71.3 | 58.0 | 29.978 | 7.26 | 0.0 | 0 | 0.00 | 0.00 | 0.00 | 0.00 |
| 05/08/26 2:56:35 AM | 36 | 0.0 | 3.0 | 55 | 83 | 71.3 | 57.9 | 29.979 | 7.26 | 0.0 | 0 | 0.00 | 0.00 | 0.00 | 0.00 |
| 05/08/26 2:57:27 AM | 35 | 0.0 | 3.0 | 55 | 83 | 71.3 | 57.9 | 29.979 | 7.26 | 0.0 | 0 | 0.00 | 0.00 | 0.00 | 0.00 |
| 05/08/26 2:58:19 AM | 34 | 0.0 | 3.0 | 55 | 83 | 71.3 | 57.9 | 29.978 | 7.26 | 0.0 | 0 | 0.00 | 0.00 | 0.00 | 0.00 |
| 05/08/26 2:59:29 AM | 32 | 0.0 | 3.0 | 55 | 83 | 71.3 | 57.8 | 29.979 | 7.26 | 0.0 | 0 | 0.00 | 0.00 | 0.00 | 0.00 |
| 05/08/26 3:00:21 AM | 38 | 0.0 | 3.0 | 55 | 83 | 71.3 | 57.9 | 29.980 | 7.26 | 0.0 | 0 | 0.00 | 0.00 | 0.00 | 0.00 |
| 05/08/26 3:01:34 AM | 38 | 0.0 | 3.0 | 55 | 83 | 71.3 | 57.8 | 29.978 | 7.26 | 0.0 | 0 | 0.00 | 0.00 | 0.00 | 0.00 |
| 05/08/26 3:02:25 AM | 38 | 0.0 | 3.0 | 55 | 83 | 71.3 | 57.8 | 29.978 | 7.26 | 0.0 | 0 | 0.00 | 0.00 | 0.00 | 0.00 |
| 05/08/26 3:03:17 AM | 38 | 0.0 | 3.0 | 55 | 83 | 71.3 | 57.8 | 29.980 | 7.26 | 0.0 | 0 | 0.00 | 0.00 | 0.00 | 0.00 |
| 05/08/26 3:04:24 AM | 35 | 0.0 | 3.0 | 55 | 83 | 71.3 | 57.8 | 29.980 | 7.26 | 0.0 | 0 | 0.00 | 0.00 | 0.00 | 0.00 |
| 05/08/26 3:05:19 AM | 35 | 0.0 | 3.0 | 55 | 83 | 71.3 | 57.8 | 29.977 | 7.26 | 0.0 | 0 | 0.00 | 0.00 | 0.00 | 0.00 |
| 05/08/26 3:06:29 AM | 38 | 0.0 | 3.0 | 55 | 83 | 71.3 | 57.7 | 29.977 | 7.26 | 0.0 | 0 | 0.00 | 0.00 | 0.00 | 0.00 |
| 05/08/26 3:07:21 AM | 38 | 0.0 | 3.0 | 55 | 83 | 71.3 | 57.7 | 29.978 | 7.26 | 0.0 | 0 | 0.00 | 0.00 | 0.00 | 0.00 |
| 05/08/26 3:08:34 AM | 36 | 0.0 | 3.0 | 55 | 83 | 71.3 | 57.7 | 29.977 | 7.26 | 0.0 | 0 | 0.00 | 0.00 | 0.00 | 0.00 |
| 05/08/26 3:09:20 AM | 35 | 0.0 | 3.0 | 55 | 83 | 71.3 | 57.7 | 29.977 | 7.26 | 0.0 | 0 | 0.00 | 0.00 | 0.00 | 0.00 |
| 05/08/26 3:10:33 AM | 38 | 0.0 | 3.0 | 55 | 83 | 71.3 | 57.7 | 29.978 | 7.26 | 0.0 | 0 | 0.00 | 0.00 | 0.00 | 0.00 |
| 05/08/26 3:11:25 AM | 32 | 0.0 | 3.0 | 55 | 84 | 71.3 | 57.6 | 29.978 | 7.26 | 0.0 | 0 | 0.00 | 0.00 | 0.00 | 0.00 |
| 05/08/26 3:12:35 AM | 39 | 0.0 | 3.0 | 55 | 84 | 71.3 | 57.6 | 29.976 | 7.26 | 0.0 | 0 | 0.00 | 0.00 | 0.00 | 0.00 |
| 05/08/26 3:13:30 AM | 38 | 0.0 | 3.0 | 55 | 84 | 71.3 | 57.6 | 29.979 | 7.26 | 0.0 | 0 | 0.00 | 0.00 | 0.00 | 0.00 |
| 05/08/26 3:14:22 AM | 38 | 0.0 | 3.0 | 55 | 84 | 71.3 | 57.6 | 29.978 | 7.26 | 0.0 | 0 | 0.00 | 0.00 | 0.00 | 0.00 |
| 05/08/26 3:15:32 AM | 36 | 0.0 | 3.0 | 55 | 84 | 71.3 | 57.6 | 29.978 | 7.26 | 0.0 | 0 | 0.00 | 0.00 | 0.00 | 0.00 |
| 05/08/26 3:16:23 AM | 34 | 0.0 | 3.0 | 55 | 84 | 71.3 | 57.6 | 29.979 | 7.26 | 0.0 | 0 | 0.00 | 0.00 | 0.00 | 0.00 |
| 05/08/26 3:17:36 AM | 35 | 0.0 | 3.0 | 55 | 84 | 71.3 | 57.5 | 29.980 | 7.26 | 0.0 | 0 | 0.00 | 0.00 | 0.00 | 0.00 |
| 05/08/26 3:18:25 AM | 38 | 0.0 | 3.0 | 55 | 84 | 71.3 | 57.5 | 29.979 | 7.26 | 0.0 | 0 | 0.00 | 0.00 | 0.00 | 0.00 |
| 05/08/26 3:19:20 AM | 38 | 0.0 | 3.0 | 55 | 84 | 71.3 | 57.5 | 29.978 | 7.26 | 0.0 | 0 | 0.00 | 0.00 | 0.00 | 0.00 |
| 05/08/26 3:20:27 AM | 38 | 0.0 | 3.0 | 55 | 84 | 71.3 | 57.5 | 29.979 | 7.26 | 0.0 | 0 | 0.00 | 0.00 | 0.00 | 0.00 |
| 05/08/26 3:21:19 AM | 35 | 0.0 | 3.0 | 55 | 84 | 71.3 | 57.5 | 29.978 | 7.26 | 0.0 | 0 | 0.00 | 0.00 | 0.00 | 0.00 |
| 05/08/26 3:22:29 AM | 38 | 0.0 | 3.0 | 55 | 84 | 71.3 | 57.4 | 29.977 | 7.26 | 0.0 | 0 | 0.00 | 0.00 | 0.00 | 0.00 |
| 05/08/26 3:23:21 AM | 38 | 0.0 | 3.0 | 55 | 84 | 71.3 | 57.4 | 29.978 | 7.26 | 0.0 | 0 | 0.00 | 0.00 | 0.00 | 0.00 |
| 05/08/26 3:24:34 AM | 35 | 0.0 | 3.0 | 55 | 84 | 71.3 | 57.4 | 29.980 | 7.26 | 0.0 | 0 | 0.00 | 0.00 | 0.00 | 0.00 |
| 05/08/26 3:25:23 AM | 38 | 0.0 | 3.0 | 55 | 84 | 71.3 | 57.4 | 29.979 | 7.26 | 0.0 | 0 | 0.00 | 0.00 | 0.00 | 0.00 |
| 05/08/26 3:26:36 AM | 38 | 0.0 | 3.0 | 55 | 84 | 71.3 | 57.3 | 29.978 | 7.26 | 0.0 | 0 | 0.00 | 0.00 | 0.00 | 0.00 |
| 05/08/26 3:27:28 AM | 36 | 0.0 | 3.0 | 55 | 84 | 71.3 | 57.3 | 29.979 | 7.26 | 0.0 | 0 | 0.00 | 0.00 | 0.00 | 0.00 |
| 05/08/26 3:28:20 AM | 38 | 0.0 | 3.0 | 55 | 84 | 71.3 | 57.3 | 29.979 | 7.26 | 0.0 | 0 | 0.00 | 0.00 | 0.00 | 0.00 |
| 05/08/26 3:29:30 AM | 38 | 0.0 | 3.0 | 55 | 84 | 71.3 | 57.3 | 29.975 | 7.26 | 0.0 | 0 | 0.00 | 0.00 | 0.00 | 0.00 |
| 05/08/26 3:30:22 AM | 35 | 0.0 | 3.0 | 55 | 84 | 71.3 | 57.2 | 29.977 | 7.26 | 0.0 | 0 | 0.00 | 0.00 | 0.00 | 0.00 |
| 05/08/26 3:31:28 AM | 36 | 0.0 | 3.0 | 55 | 84 | 71.2 | 57.2 | 29.975 | 7.26 | 0.0 | 0 | 0.00 | 0.00 | 0.00 | 0.00 |
| 05/08/26 3:32:23 AM | 34 | 0.0 | 3.0 | 55 | 84 | 71.3 | 57.2 | 29.976 | 7.26 | 0.0 | 0 | 0.00 | 0.00 | 0.00 | 0.00 |
| 05/08/26 3:33:33 AM | 38 | 0.0 | 3.0 | 55 | 84 | 71.2 | 57.2 | 29.977 | 7.26 | 0.0 | 0 | 0.00 | 0.00 | 0.00 | 0.00 |
| 05/08/26 3:34:25 AM | 32 | 0.0 | 3.0 | 55 | 84 | 71.2 | 57.2 | 29.976 | 7.26 | 0.0 | 0 | 0.00 | 0.00 | 0.00 | 0.00 |
| 05/08/26 3:35:17 AM | 32 | 0.0 | 3.0 | 55 | 84 | 71.2 | 57.2 | 29.976 | 7.26 | 0.0 | 0 | 0.00 | 0.00 | 0.00 | 0.00 |
| 05/08/26 3:36:24 AM | 36 | 0.0 | 3.0 | 55 | 84 | 71.2 | 57.2 | 29.976 | 7.26 | 0.0 | 0 | 0.00 | 0.00 | 0.00 | 0.00 |
| 05/08/26 3:37:16 AM | 38 | 0.0 | 3.0 | 55 | 84 | 71.2 | 57.2 | 29.977 | 7.26 | 0.0 | 0 | 0.00 | 0.00 | 0.00 | 0.00 |
| 05/08/26 3:38:26 AM | 38 | 0.0 | 3.0 | 55 | 84 | 71.2 | 57.2 | 29.977 | 7.26 | 0.0 | 0 | 0.00 | 0.00 | 0.00 | 0.00 |
| 05/08/26 3:39:21 AM | 36 | 0.0 | 3.0 | 55 | 84 | 71.2 | 57.1 | 29.977 | 7.26 | 0.0 | 0 | 0.00 | 0.00 | 0.00 | 0.00 |
| 05/08/26 3:40:31 AM | 35 | 0.0 | 3.0 | 55 | 84 | 71.2 | 57.1 | 29.977 | 7.26 | 0.0 | 0 | 0.00 | 0.00 | 0.00 | 0.00 |
| 05/08/26 3:41:20 AM | 34 | 0.0 | 3.0 | 55 | 84 | 71.2 | 57.1 | 29.976 | 7.26 | 0.0 | 0 | 0.00 | 0.00 | 0.00 | 0.00 |
| 05/08/26 3:42:33 AM | 38 | 0.0 | 3.0 | 55 | 84 | 71.2 | 57.1 | 29.976 | 7.26 | 0.0 | 0 | 0.00 | 0.00 | 0.00 | 0.00 |
| 05/08/26 3:43:25 AM | 35 | 0.0 | 3.0 | 55 | 84 | 71.2 | 57.0 | 29.977 | 7.26 | 0.0 | 0 | 0.00 | 0.00 | 0.00 | 0.00 |
| 05/08/26 3:44:35 AM | 38 | 0.0 | 3.0 | 55 | 84 | 71.1 | 57.0 | 29.977 | 7.26 | 0.0 | 0 | 0.00 | 0.00 | 0.00 | 0.00 |
| 05/08/26 3:45:30 AM | 32 | 0.0 | 3.0 | 55 | 84 | 71.2 | 57.0 | 29.976 | 7.26 | 0.0 | 0 | 0.00 | 0.00 | 0.00 | 0.00 |
| 05/08/26 3:46:22 AM | 38 | 0.0 | 3.0 | 55 | 84 | 71.1 | 57.0 | 29.977 | 7.26 | 0.0 | 0 | 0.00 | 0.00 | 0.00 | 0.00 |
| 05/08/26 3:47:29 AM | 34 | 0.0 | 3.0 | 55 | 85 | 71.1 | 57.0 | 29.978 | 7.26 | 0.0 | 0 | 0.00 | 0.00 | 0.00 | 0.00 |
| 05/08/26 3:48:21 AM | 35 | 0.0 | 3.0 | 55 | 85 | 71.2 | 57.0 | 29.977 | 7.26 | 0.0 | 0 | 0.00 | 0.00 | 0.00 | 0.00 |
| 05/08/26 3:49:33 AM | 38 | 0.0 | 3.0 | 55 | 85 | 71.1 | 57.0 | 29.977 | 7.26 | 0.0 | 0 | 0.00 | 0.00 | 0.00 | 0.00 |
| 05/08/26 3:50:25 AM | 38 | 0.0 | 3.0 | 55 | 85 | 71.1 | 56.9 | 29.974 | 7.26 | 0.0 | 0 | 0.00 | 0.00 | 0.00 | 0.00 |
| 05/08/26 3:51:35 AM | 36 | 0.0 | 3.0 | 55 | 85 | 71.1 | 56.9 | 29.976 | 7.26 | 0.0 | 0 | 0.00 | 0.00 | 0.00 | 0.00 |
| 05/08/26 3:52:24 AM | 35 | 0.0 | 3.0 | 55 | 85 | 71.1 | 56.9 | 29.977 | 7.26 | 0.0 | 0 | 0.00 | 0.00 | 0.00 | 0.00 |
| 05/08/26 3:53:37 AM | 32 | 0.0 | 3.0 | 55 | 84 | 71.1 | 56.9 | 29.974 | 7.26 | 0.0 | 0 | 0.00 | 0.00 | 0.00 | 0.00 |
| 05/08/26 3:54:29 AM | 38 | 0.0 | 3.0 | 55 | 85 | 71.1 | 56.9 | 29.975 | 7.26 | 0.0 | 0 | 0.00 | 0.00 | 0.00 | 0.00 |
| 05/08/26 3:55:21 AM | 36 | 0.0 | 3.0 | 55 | 84 | 71.1 | 56.8 | 29.976 | 7.26 | 0.0 | 0 | 0.00 | 0.00 | 0.00 | 0.00 |
| 05/08/26 3:56:31 AM | 36 | 0.0 | 3.0 | 55 | 84 | 71.1 | 56.8 | 29.975 | 7.26 | 0.0 | 0 | 0.00 | 0.00 | 0.00 | 0.00 |
| 05/08/26 3:57:20 AM | 38 | 0.0 | 3.0 | 55 | 84 | 71.1 | 56.8 | 29.976 | 7.26 | 0.0 | 0 | 0.00 | 0.00 | 0.00 | 0.00 |
| 05/08/26 3:58:30 AM | 36 | 0.0 | 3.0 | 55 | 85 | 71.1 | 56.7 | 29.976 | 7.26 | 0.0 | 0 | 0.00 | 0.00 | 0.00 | 0.00 |
| 05/08/26 3:59:22 AM | 35 | 0.0 | 3.0 | 55 | 85 | 71.1 | 56.7 | 29.977 | 7.26 | 0.0 | 0 | 0.00 | 0.00 | 0.00 | 0.00 |
| 05/08/26 4:00:38 AM | 34 | 0.0 | 3.0 | 55 | 85 | 71.1 | 56.7 | 29.977 | 7.26 | 0.0 | 0 | 0.00 | 0.00 | 0.00 | 0.00 |
| 05/08/26 4:01:30 AM | 38 | 0.0 | 3.0 | 55 | 85 | 71.1 | 56.6 | 29.976 | 7.26 | 0.0 | 0 | 0.00 | 0.00 | 0.00 | 0.00 |
| 05/08/26 4:02:22 AM | 38 | 0.0 | 3.0 | 55 | 85 | 71.1 | 56.6 | 29.979 | 7.26 | 0.0 | 0 | 0.00 | 0.00 | 0.00 | 0.00 |
| 05/08/26 4:03:29 AM | 38 | 0.0 | 3.0 | 55 | 85 | 71.1 | 56.6 | 29.975 | 7.26 | 0.0 | 0 | 0.00 | 0.00 | 0.00 | 0.00 |
| 05/08/26 4:04:21 AM | 36 | 0.0 | 3.0 | 55 | 85 | 71.1 | 56.6 | 29.976 | 7.26 | 0.0 | 0 | 0.00 | 0.00 | 0.00 | 0.00 |
| 05/08/26 4:05:34 AM | 32 | 0.0 | 3.0 | 55 | 85 | 71.0 | 56.6 | 29.975 | 7.26 | 0.0 | 0 | 0.00 | 0.00 | 0.00 | 0.00 |
| 05/08/26 4:06:26 AM | 38 | 0.0 | 3.0 | 55 | 85 | 71.0 | 56.5 | 29.974 | 7.26 | 0.0 | 0 | 0.00 | 0.00 | 0.00 | 0.00 |
| 05/08/26 4:07:18 AM | 35 | 0.0 | 3.0 | 55 | 85 | 71.1 | 56.6 | 29.974 | 7.26 | 0.0 | 0 | 0.00 | 0.00 | 0.00 | 0.00 |
| 05/08/26 4:08:28 AM | 38 | 0.0 | 3.0 | 55 | 85 | 71.0 | 56.6 | 29.974 | 7.26 | 0.0 | 0 | 0.00 | 0.00 | 0.00 | 0.00 |
| 05/08/26 4:09:16 AM | 35 | 0.0 | 3.0 | 55 | 85 | 71.0 | 56.6 | 29.978 | 7.26 | 0.0 | 0 | 0.00 | 0.00 | 0.00 | 0.00 |
| 05/08/26 4:10:30 AM | 31 | 0.0 | 3.0 | 55 | 85 | 71.0 | 56.6 | 29.974 | 7.26 | 0.0 | 0 | 0.00 | 0.00 | 0.00 | 0.00 |
| 05/08/26 4:11:21 AM | 38 | 0.0 | 3.0 | 55 | 85 | 71.0 | 56.5 | 29.974 | 7.26 | 0.0 | 0 | 0.00 | 0.00 | 0.00 | 0.00 |
| 05/08/26 4:12:32 AM | 38 | 0.0 | 3.0 | 55 | 85 | 71.0 | 56.5 | 29.976 | 7.26 | 0.0 | 0 | 0.00 | 0.00 | 0.00 | 0.00 |
| 05/08/26 4:13:20 AM | 36 | 0.0 | 3.0 | 55 | 85 | 71.0 | 56.5 | 29.975 | 7.26 | 0.0 | 0 | 0.00 | 0.00 | 0.00 | 0.00 |
| 05/08/26 4:14:33 AM | 35 | 0.0 | 3.0 | 55 | 85 | 71.0 | 56.4 | 29.977 | 7.26 | 0.0 | 0 | 0.00 | 0.00 | 0.00 | 0.00 |
| 05/08/26 4:15:49 AM | 38 | 0.0 | 3.0 | 55 | 85 | 71.0 | 56.4 | 29.975 | 7.26 | 0.0 | 0 | 0.00 | 0.00 | 0.00 | 0.00 |
| 05/08/26 4:16:20 AM | 35 | 0.0 | 3.0 | 55 | 85 | 71.0 | 56.4 | 29.978 | 7.26 | 0.0 | 0 | 0.00 | 0.00 | 0.00 | 0.00 |
| 05/08/26 4:17:33 AM | 36 | 0.0 | 3.0 | 55 | 85 | 71.0 | 56.4 | 29.978 | 7.26 | 0.0 | 0 | 0.00 | 0.00 | 0.00 | 0.00 |
| 05/08/26 4:18:25 AM | 38 | 0.0 | 3.0 | 55 | 85 | 71.0 | 56.4 | 29.978 | 7.26 | 0.0 | 0 | 0.00 | 0.00 | 0.00 | 0.00 |
| 05/08/26 4:19:32 AM | 36 | 0.0 | 3.0 | 55 | 85 | 71.0 | 56.3 | 29.977 | 7.26 | 0.0 | 0 | 0.00 | 0.00 | 0.00 | 0.00 |
| 05/08/26 4:20:24 AM | 38 | 0.0 | 3.0 | 55 | 85 | 71.0 | 56.3 | 29.976 | 7.26 | 0.0 | 0 | 0.00 | 0.00 | 0.00 | 0.00 |
| 05/08/26 4:21:16 AM | 35 | 0.0 | 3.0 | 55 | 85 | 71.0 | 56.3 | 29.977 | 7.26 | 0.0 | 0 | 0.00 | 0.00 | 0.00 | 0.00 |
| 05/08/26 4:22:26 AM | 36 | 0.0 | 3.0 | 55 | 85 | 71.0 | 56.3 | 29.977 | 7.26 | 0.0 | 0 | 0.00 | 0.00 | 0.00 | 0.00 |
| 05/08/26 4:23:18 AM | 38 | 0.0 | 3.0 | 55 | 85 | 71.0 | 56.3 | 29.978 | 7.26 | 0.0 | 0 | 0.00 | 0.00 | 0.00 | 0.00 |
| 05/08/26 4:24:28 AM | 38 | 0.0 | 3.0 | 55 | 85 | 71.0 | 56.3 | 29.974 | 7.26 | 0.0 | 0 | 0.00 | 0.00 | 0.00 | 0.00 |
| 05/08/26 4:25:20 AM | 35 | 0.0 | 3.0 | 55 | 85 | 71.0 | 56.3 | 29.978 | 7.26 | 0.0 | 0 | 0.00 | 0.00 | 0.00 | 0.00 |
| 05/08/26 4:26:33 AM | 38 | 0.0 | 3.0 | 55 | 85 | 71.0 | 56.3 | 29.978 | 7.26 | 0.0 | 0 | 0.00 | 0.00 | 0.00 | 0.00 |
| 05/08/26 4:27:25 AM | 36 | 0.0 | 3.0 | 55 | 85 | 70.9 | 56.3 | 29.975 | 7.26 | 0.0 | 0 | 0.00 | 0.00 | 0.00 | 0.00 |
| 05/08/26 4:28:17 AM | 38 | 0.0 | 3.0 | 55 | 85 | 70.9 | 56.3 | 29.977 | 7.26 | 0.0 | 0 | 0.00 | 0.00 | 0.00 | 0.00 |
| 05/08/26 4:29:30 AM | 36 | 0.0 | 3.0 | 55 | 85 | 71.0 | 56.2 | 29.978 | 7.26 | 0.0 | 0 | 0.00 | 0.00 | 0.00 | 0.00 |
| 05/08/26 4:30:19 AM | 38 | 0.0 | 3.0 | 55 | 85 | 70.9 | 56.2 | 29.977 | 7.26 | 0.0 | 0 | 0.00 | 0.00 | 0.00 | 0.00 |
| 05/08/26 4:31:29 AM | 39 | 0.0 | 3.0 | 55 | 85 | 70.9 | 56.2 | 29.977 | 7.26 | 0.0 | 0 | 0.00 | 0.00 | 0.00 | 0.00 |
| 05/08/26 4:32:21 AM | 38 | 0.0 | 3.0 | 55 | 86 | 70.9 | 56.2 | 29.978 | 7.26 | 0.0 | 0 | 0.00 | 0.00 | 0.00 | 0.00 |
| 05/08/26 4:33:34 AM | 36 | 0.0 | 3.0 | 55 | 86 | 70.9 | 56.2 | 29.979 | 7.26 | 0.0 | 0 | 0.00 | 0.00 | 0.00 | 0.00 |
| 05/08/26 4:34:26 AM | 32 | 0.0 | 3.0 | 55 | 86 | 70.9 | 56.2 | 29.978 | 7.26 | 0.0 | 0 | 0.00 | 0.00 | 0.00 | 0.00 |
| 05/08/26 4:35:33 AM | 34 | 0.0 | 3.0 | 55 | 86 | 70.9 | 56.2 | 29.977 | 7.26 | 0.0 | 0 | 0.00 | 0.00 | 0.00 | 0.00 |
| 05/08/26 4:36:27 AM | 38 | 0.0 | 3.0 | 55 | 86 | 70.9 | 56.2 | 29.979 | 7.26 | 0.0 | 0 | 0.00 | 0.00 | 0.00 | 0.00 |
| 05/08/26 4:37:19 AM | 36 | 0.0 | 3.0 | 55 | 86 | 70.9 | 56.2 | 29.979 | 7.26 | 0.0 | 0 | 0.00 | 0.00 | 0.00 | 0.00 |
| 05/08/26 4:38:30 AM | 38 | 0.0 | 3.0 | 55 | 86 | 70.9 | 56.2 | 29.979 | 7.26 | 0.0 | 0 | 0.00 | 0.00 | 0.00 | 0.00 |
| 05/08/26 4:39:24 AM | 36 | 0.0 | 3.0 | 55 | 86 | 70.8 | 56.2 | 29.976 | 7.26 | 0.0 | 0 | 0.00 | 0.00 | 0.00 | 0.00 |
| 05/08/26 4:40:31 AM | 38 | 0.0 | 3.0 | 55 | 86 | 70.9 | 56.1 | 29.977 | 7.26 | 0.0 | 0 | 0.00 | 0.00 | 0.00 | 0.00 |
| 05/08/26 4:41:23 AM | 38 | 0.0 | 3.0 | 55 | 86 | 70.8 | 56.2 | 29.979 | 7.26 | 0.0 | 0 | 0.00 | 0.00 | 0.00 | 0.00 |
| 05/08/26 4:42:36 AM | 38 | 0.0 | 3.0 | 55 | 86 | 70.8 | 56.1 | 29.978 | 7.26 | 0.0 | 0 | 0.00 | 0.00 | 0.00 | 0.00 |
| 05/08/26 4:43:28 AM | 35 | 0.0 | 3.0 | 55 | 86 | 70.8 | 56.1 | 29.979 | 7.26 | 0.0 | 0 | 0.00 | 0.00 | 0.00 | 0.00 |
| 05/08/26 4:44:20 AM | 38 | 0.0 | 3.0 | 55 | 86 | 70.8 | 56.1 | 29.978 | 7.26 | 0.0 | 0 | 0.00 | 0.00 | 0.00 | 0.00 |
| 05/08/26 4:45:33 AM | 35 | 0.0 | 3.0 | 55 | 86 | 70.8 | 56.1 | 29.979 | 7.26 | 0.0 | 0 | 0.00 | 0.00 | 0.00 | 0.00 |
| 05/08/26 4:46:19 AM | 36 | 0.0 | 3.0 | 55 | 86 | 70.8 | 56.1 | 29.979 | 7.26 | 0.0 | 0 | 0.00 | 0.00 | 0.00 | 0.00 |
| 05/08/26 4:47:32 AM | 34 | 0.0 | 3.0 | 55 | 86 | 70.8 | 56.1 | 29.979 | 7.26 | 0.0 | 0 | 0.00 | 0.00 | 0.00 | 0.00 |
| 05/08/26 4:48:24 AM | 38 | 0.0 | 3.0 | 55 | 86 | 70.8 | 56.1 | 29.981 | 7.26 | 0.0 | 0 | 0.00 | 0.00 | 0.00 | 0.00 |
| 05/08/26 4:49:34 AM | 35 | 0.0 | 3.0 | 55 | 86 | 70.8 | 56.1 | 29.981 | 7.26 | 0.0 | 0 | 0.00 | 0.00 | 0.00 | 0.00 |
| 05/08/26 4:50:26 AM | 36 | 0.0 | 3.0 | 55 | 86 | 70.8 | 56.0 | 29.981 | 7.26 | 0.0 | 0 | 0.00 | 0.00 | 0.00 | 0.00 |
| 05/08/26 4:51:33 AM | 36 | 0.0 | 3.0 | 55 | 86 | 70.8 | 56.0 | 29.981 | 7.26 | 0.0 | 0 | 0.00 | 0.00 | 0.00 | 0.00 |
| 05/08/26 4:52:28 AM | 36 | 0.0 | 3.0 | 55 | 86 | 70.8 | 56.0 | 29.983 | 7.26 | 0.0 | 0 | 0.00 | 0.00 | 0.00 | 0.00 |
| 05/08/26 4:53:20 AM | 34 | 0.0 | 3.0 | 55 | 86 | 70.8 | 56.0 | 29.984 | 7.26 | 0.0 | 0 | 0.00 | 0.00 | 0.00 | 0.00 |
| 05/08/26 4:54:30 AM | 35 | 0.0 | 3.0 | 55 | 86 | 70.8 | 56.0 | 29.984 | 7.26 | 0.0 | 0 | 0.00 | 0.00 | 0.00 | 0.00 |
| 05/08/26 4:55:25 AM | 38 | 0.0 | 3.0 | 55 | 86 | 70.8 | 56.0 | 29.983 | 7.26 | 0.0 | 0 | 0.00 | 0.00 | 0.00 | 0.00 |
| 05/08/26 4:56:32 AM | 38 | 0.0 | 3.0 | 55 | 86 | 70.8 | 56.0 | 29.983 | 7.26 | 0.0 | 0 | 0.00 | 0.00 | 0.00 | 0.00 |
| 05/08/26 4:57:23 AM | 32 | 0.0 | 3.0 | 55 | 86 | 70.8 | 55.9 | 29.983 | 7.26 | 0.0 | 0 | 0.00 | 0.00 | 0.00 | 0.00 |
| 05/08/26 4:58:34 AM | 36 | 0.0 | 3.0 | 55 | 86 | 70.8 | 55.9 | 29.983 | 7.26 | 0.0 | 0 | 0.00 | 0.00 | 0.00 | 0.00 |
| 05/08/26 4:59:25 AM | 36 | 0.0 | 3.0 | 55 | 86 | 70.8 | 55.9 | 29.985 | 7.26 | 0.0 | 0 | 0.00 | 0.00 | 0.00 | 0.00 |
| 05/08/26 5:00:20 AM | 35 | 0.0 | 3.0 | 55 | 86 | 70.8 | 55.9 | 29.983 | 7.26 | 0.0 | 0 | 0.00 | 0.00 | 0.00 | 0.00 |
| 05/08/26 5:01:30 AM | 36 | 0.0 | 3.0 | 55 | 86 | 70.8 | 55.8 | 29.983 | 7.26 | 0.0 | 0 | 0.00 | 0.00 | 0.00 | 0.00 |
| 05/08/26 5:02:16 AM | 35 | 0.0 | 3.0 | 55 | 86 | 70.8 | 55.8 | 29.984 | 7.26 | 0.0 | 0 | 0.00 | 0.00 | 0.00 | 0.00 |
| 05/08/26 5:03:29 AM | 36 | 0.0 | 3.0 | 55 | 86 | 70.8 | 55.8 | 29.984 | 7.26 | 0.0 | 0 | 0.00 | 0.00 | 0.00 | 0.00 |
| 05/08/26 5:04:21 AM | 36 | 0.0 | 3.0 | 55 | 86 | 70.8 | 55.8 | 29.983 | 7.26 | 0.0 | 0 | 0.00 | 0.00 | 0.00 | 0.00 |
| 05/08/26 5:05:34 AM | 38 | 0.0 | 3.0 | 55 | 86 | 70.7 | 55.8 | 29.982 | 7.26 | 0.0 | 0 | 0.00 | 0.00 | 0.00 | 0.00 |
| 05/08/26 5:06:26 AM | 34 | 0.0 | 3.0 | 55 | 86 | 70.6 | 55.7 | 29.983 | 7.26 | 0.0 | 0 | 0.00 | 0.00 | 0.00 | 0.00 |
| 05/08/26 5:07:33 AM | 34 | 0.0 | 3.0 | 55 | 86 | 70.6 | 55.7 | 29.985 | 7.26 | 0.0 | 0 | 0.00 | 0.00 | 0.00 | 0.00 |
| 05/08/26 5:08:25 AM | 38 | 0.0 | 3.0 | 55 | 86 | 70.5 | 55.7 | 29.984 | 7.26 | 0.0 | 0 | 0.00 | 0.00 | 0.00 | 0.00 |
| 05/08/26 5:09:35 AM | 38 | 0.0 | 3.0 | 55 | 86 | 70.3 | 55.7 | 29.982 | 7.26 | 0.0 | 0 | 0.00 | 0.00 | 0.00 | 0.00 |
| 05/08/26 5:10:27 AM | 38 | 0.0 | 3.0 | 55 | 86 | 70.2 | 55.7 | 29.984 | 7.26 | 0.0 | 0 | 0.00 | 0.00 | 0.00 | 0.00 |
| 05/08/26 5:11:19 AM | 36 | 0.0 | 3.0 | 55 | 86 | 70.1 | 55.7 | 29.984 | 7.26 | 0.0 | 0 | 0.00 | 0.00 | 0.00 | 0.00 |
| 05/08/26 5:12:29 AM | 38 | 0.0 | 3.0 | 55 | 86 | 70.0 | 55.6 | 29.982 | 7.26 | 0.0 | 0 | 0.00 | 0.00 | 0.00 | 0.00 |
| 05/08/26 5:13:21 AM | 38 | 0.0 | 3.0 | 55 | 86 | 69.9 | 55.6 | 29.982 | 7.26 | 0.0 | 0 | 0.00 | 0.00 | 0.00 | 0.00 |
| 05/08/26 5:14:31 AM | 39 | 0.0 | 3.0 | 55 | 86 | 69.7 | 55.6 | 29.984 | 7.26 | 0.0 | 0 | 0.00 | 0.00 | 0.00 | 0.00 |
| 05/08/26 5:15:26 AM | 36 | 0.0 | 3.0 | 55 | 86 | 69.7 | 55.5 | 29.982 | 7.26 | 0.0 | 0 | 0.00 | 0.00 | 0.00 | 0.00 |
| 05/08/26 5:16:18 AM | 36 | 0.0 | 3.0 | 55 | 86 | 69.6 | 55.6 | 29.983 | 7.26 | 0.0 | 0 | 0.00 | 0.00 | 0.00 | 0.00 |
| 05/08/26 5:17:28 AM | 32 | 0.0 | 3.0 | 55 | 86 | 69.4 | 55.5 | 29.985 | 7.26 | 0.0 | 0 | 0.00 | 0.00 | 0.00 | 0.00 |
| 05/08/26 5:18:17 AM | 38 | 0.0 | 3.0 | 55 | 86 | 69.4 | 55.5 | 29.984 | 7.26 | 0.0 | 0 | 0.00 | 0.00 | 0.00 | 0.00 |
| 05/08/26 5:19:27 AM | 38 | 0.0 | 3.0 | 55 | 86 | 69.2 | 55.5 | 29.984 | 7.26 | 0.0 | 0 | 0.00 | 0.00 | 0.00 | 0.00 |
| 05/08/26 5:20:19 AM | 38 | 0.0 | 3.0 | 55 | 86 | 69.1 | 55.5 | 29.984 | 7.26 | 0.0 | 0 | 0.00 | 0.00 | 0.00 | 0.00 |
| 05/08/26 5:21:32 AM | 35 | 0.0 | 3.0 | 55 | 86 | 69.0 | 55.5 | 29.983 | 7.26 | 0.0 | 0 | 0.00 | 0.00 | 0.00 | 0.00 |
| 05/08/26 5:22:24 AM | 36 | 0.0 | 3.0 | 56 | 86 | 68.9 | 55.4 | 29.983 | 7.26 | 0.0 | 0 | 0.00 | 0.00 | 0.00 | 0.00 |
| 05/08/26 5:23:31 AM | 32 | 0.0 | 3.0 | 56 | 86 | 68.9 | 55.4 | 29.982 | 7.26 | 0.0 | 0 | 0.00 | 0.00 | 0.00 | 0.00 |
| 05/08/26 5:24:23 AM | 38 | 0.0 | 3.0 | 56 | 86 | 68.7 | 55.4 | 29.985 | 7.26 | 0.0 | 0 | 0.00 | 0.00 | 0.00 | 0.00 |
| 05/08/26 5:25:36 AM | 35 | 0.0 | 3.0 | 56 | 86 | 68.7 | 55.4 | 29.987 | 7.26 | 0.0 | 0 | 0.00 | 0.00 | 0.00 | 0.00 |
| 05/08/26 5:26:28 AM | 36 | 0.0 | 3.0 | 56 | 86 | 68.6 | 55.4 | 29.988 | 7.26 | 0.0 | 0 | 0.00 | 0.00 | 0.00 | 0.00 |
| 05/08/26 5:27:20 AM | 38 | 0.0 | 3.0 | 56 | 86 | 68.5 | 55.4 | 29.987 | 7.26 | 0.0 | 0 | 0.00 | 0.00 | 0.00 | 0.00 |
| 05/08/26 5:28:27 AM | 31 | 0.0 | 3.0 | 57 | 87 | 68.4 | 55.3 | 29.988 | 7.26 | 0.0 | 0 | 0.00 | 0.00 | 0.00 | 0.00 |
| 05/08/26 5:29:19 AM | 36 | 0.0 | 3.0 | 57 | 87 | 68.3 | 55.3 | 29.988 | 7.26 | 0.0 | 0 | 0.00 | 0.00 | 0.00 | 0.00 |
| 05/08/26 5:30:32 AM | 35 | 0.0 | 3.0 | 57 | 87 | 68.3 | 55.4 | 29.991 | 7.26 | 0.0 | 0 | 0.00 | 0.00 | 0.00 | 0.00 |
| 05/08/26 5:31:24 AM | 38 | 0.0 | 3.0 | 57 | 87 | 68.2 | 55.4 | 29.989 | 7.26 | 0.0 | 0 | 0.00 | 0.00 | 0.00 | 0.00 |
| 05/08/26 5:32:16 AM | 35 | 0.0 | 3.0 | 57 | 87 | 68.2 | 55.4 | 29.990 | 7.26 | 0.0 | 0 | 0.00 | 0.00 | 0.00 | 0.00 |
| 05/08/26 5:33:29 AM | 38 | 0.0 | 3.0 | 57 | 87 | 68.1 | 55.3 | 29.990 | 7.26 | 0.0 | 0 | 0.00 | 0.00 | 0.00 | 0.00 |
| 05/08/26 5:34:36 AM | 36 | 0.0 | 3.0 | 57 | 87 | 68.1 | 55.3 | 29.988 | 7.26 | 0.0 | 0 | 0.00 | 0.00 | 0.00 | 0.00 |
| 05/08/26 5:35:28 AM | 38 | 0.0 | 3.0 | 58 | 87 | 68.0 | 55.3 | 29.991 | 7.26 | 0.0 | 0 | 0.00 | 0.00 | 0.00 | 0.00 |
| 05/08/26 5:36:20 AM | 38 | 0.0 | 3.0 | 58 | 87 | 67.9 | 55.3 | 29.991 | 7.26 | 0.0 | 0 | 0.00 | 0.00 | 0.00 | 0.00 |
| 05/08/26 5:37:33 AM | 35 | 0.0 | 3.0 | 58 | 87 | 67.8 | 55.3 | 29.990 | 7.26 | 0.0 | 0 | 0.00 | 0.00 | 0.00 | 0.00 |
| 05/08/26 5:38:22 AM | 38 | 0.0 | 3.0 | 58 | 87 | 67.8 | 55.3 | 29.992 | 7.26 | 0.0 | 0 | 0.00 | 0.00 | 0.00 | 0.00 |
| 05/08/26 5:39:32 AM | 38 | 0.0 | 3.0 | 58 | 87 | 67.7 | 55.3 | 29.991 | 7.26 | 0.0 | 0 | 0.00 | 0.00 | 0.00 | 0.00 |
| 05/08/26 5:40:25 AM | 38 | 0.0 | 3.0 | 58 | 87 | 67.7 | 55.3 | 29.992 | 7.26 | 0.0 | 0 | 0.00 | 0.00 | 0.00 | 0.00 |
| 05/08/26 5:41:35 AM | 36 | 0.0 | 3.0 | 58 | 87 | 67.6 | 55.3 | 29.994 | 7.26 | 0.0 | 0 | 0.00 | 0.00 | 0.00 | 0.00 |
| 05/08/26 5:42:30 AM | 35 | 0.0 | 3.0 | 58 | 87 | 67.6 | 55.3 | 29.991 | 7.26 | 0.0 | 0 | 0.00 | 0.00 | 0.00 | 0.00 |
| 05/08/26 5:43:19 AM | 36 | 0.0 | 3.0 | 58 | 87 | 67.6 | 55.3 | 29.991 | 7.26 | 0.0 | 0 | 0.00 | 0.00 | 0.00 | 0.00 |
| 05/08/26 5:44:29 AM | 36 | 0.0 | 3.0 | 58 | 87 | 67.5 | 55.3 | 29.990 | 7.26 | 0.0 | 0 | 0.00 | 0.00 | 0.00 | 0.00 |
| 05/08/26 5:45:21 AM | 35 | 0.0 | 3.0 | 58 | 87 | 67.5 | 55.3 | 29.992 | 7.26 | 0.0 | 0 | 0.00 | 0.00 | 0.00 | 0.00 |
| 05/08/26 5:46:34 AM | 35 | 0.0 | 3.0 | 58 | 87 | 67.4 | 55.3 | 29.991 | 7.26 | 0.0 | 0 | 0.00 | 0.00 | 0.00 | 0.00 |
| 05/08/26 5:47:26 AM | 32 | 0.0 | 3.0 | 58 | 87 | 67.4 | 55.3 | 29.991 | 7.26 | 0.0 | 0 | 0.00 | 0.00 | 0.00 | 0.00 |
| 05/08/26 5:48:18 AM | 38 | 0.0 | 3.0 | 58 | 87 | 67.3 | 55.3 | 29.991 | 7.26 | 0.0 | 0 | 0.00 | 0.00 | 0.00 | 0.00 |
| 05/08/26 5:49:30 AM | 36 | 0.0 | 3.0 | 58 | 87 | 67.2 | 55.3 | 29.992 | 7.26 | 0.0 | 0 | 0.00 | 0.00 | 0.00 | 0.00 |
| 05/08/26 5:50:20 AM | 36 | 0.0 | 3.0 | 58 | 87 | 67.2 | 55.3 | 29.992 | 7.26 | 0.0 | 0 | 0.00 | 0.00 | 0.00 | 0.00 |
| 05/08/26 5:51:30 AM | 31 | 0.0 | 3.0 | 58 | 87 | 67.2 | 55.3 | 29.990 | 7.26 | 0.0 | 0 | 0.00 | 0.00 | 0.00 | 0.00 |
| 05/08/26 5:52:21 AM | 31 | 0.0 | 3.0 | 59 | 87 | 67.1 | 55.3 | 29.990 | 7.26 | 0.0 | 0 | 0.00 | 0.00 | 0.00 | 0.00 |
| 05/08/26 5:53:35 AM | 31 | 0.0 | 3.0 | 59 | 87 | 67.1 | 55.2 | 29.990 | 7.26 | 0.0 | 0 | 0.00 | 0.00 | 0.00 | 0.00 |
| 05/08/26 5:54:26 AM | 34 | 0.0 | 3.0 | 59 | 87 | 67.1 | 55.2 | 29.991 | 7.26 | 0.0 | 0 | 0.00 | 0.00 | 0.00 | 0.00 |
| 05/08/26 5:55:37 AM | 36 | 0.0 | 3.0 | 59 | 87 | 66.9 | 55.2 | 29.990 | 7.26 | 0.0 | 0 | 0.00 | 0.00 | 0.00 | 0.00 |
University Police wind advisory reference
For campus closure information please call the campus Emergency Hotline at (909) 537-5999
© All rights reserved. Unauthorized duplication or distribution is prohibited
Never base important decisions on this or any weather information obtained from the Internet
California State University, San Bernardino
5500 University Parkway, San Bernardino, CA. 92407
Phone: (909) 537-5108, Email: Weather Webmaster
Last Updated: